Torna al catalogo

STARLINK-37340

AttivoComunicazioniVLEO
NORAD 68708·PAYLOAD·🇺🇸 United States

Lanciato Apr 14, 2026 da Cape Canaveral Space Force Station

Loading…

Prossimi Passaggi (prossime 24 ore)

TLE

AggiornatoSource: CelesTrak SupGP

Epoca: Sep 14, 2026, 22:34 UTC

1 68708C 26081K   26257.94076389  .00027728  00000+0  81844-3 0  2574
2 68708  53.1576 231.8665 0001225  98.3721 230.4314 15.34407046    11

Traccia STARLINK-37340 in tempo reale con AllMySat

Download on the App Store